Holyoke AP, Holyoke, CO, CO

12:10 AM MST on December 12, 2017 (GMT -0700)
Holyoke Municipal

Weather History for KHEQ - August, 2014

Change the Weather History Date:

Monday, August 4, 2014

  Actual Average Record
Temperature  
Mean Temperature 78 °F -  
Max Temperature 95 °F 87 °F 95 °F (2014)
Min Temperature 60 °F 58 °F 55 °F (2017)
Cooling Degree Days 12    
Growing Degree Days 28 (Base 50)    
Moisture  
Dew Point 53 °F    
Average Humidity 47    
Maximum Humidity 77    
Minimum Humidity 25    
Precipitation  
Precipitation 0.00 in - - ()
Sea Level Pressure  
Sea Level Pressure 30.07 in    
Wind  
Wind Speed 7 mph (South)    
Max Wind Speed 13 mph    
Max Gust Speed 25 mph    
Visibility 10 miles    
Events      
Averages and records for this station are not official NWS values.
T = Trace of Precipitation, MM = Missing Value Source: NWS Daily Summary

Daily Weather History Graph

Daily Weather History Graph

Search for Another Location

Airport or City:

Trip Planner

Search our weather history database for the weather conditions in past years. The results will help you decide how hot, cold, wet, or windy it might be!

Date:

Astronomy

Aug. 04, 2014 Rise Set
Actual Time 5:49 AM MDT 8:00 PM MDT
Civil Twilight 5:18 AM MDT 8:30 PM MDT
Nautical Twilight 4:41 AM MDT 9:08 PM MDT
Astronomical Twilight 4:00 AM MDT 9:48 PM MDT
Moon 2:14 PM MDT (8/4) No Moon Set
Length of Visible Light 15h 12m
Length of Day
14h 11m
First Quarter, 58% of the Moon is Illuminated
Aug 4
First Quarter
Aug 10
Full
Aug 17
Last Quarter
Aug 25
New
Sep 2
First Quarter

Hourly Weather History & Observations

Time (MDT) Temp. Heat Index Dew Point Humidity Pressure Visibility Wind Dir Wind Speed Gust Speed Precip Events Conditions
12:15 AM 66.2 °F - 50.0 °F 56% 30.11 in 10.0 mi SSW 9.2 mph - N/A   Clear
12:35 AM 68.0 °F - 50.0 °F 52% 30.11 in 10.0 mi SW 8.1 mph - N/A   Clear
12:55 AM 68.0 °F - 48.2 °F 49% 30.11 in 10.0 mi SW 8.1 mph - N/A   Clear
1:15 AM 68.0 °F - 46.4 °F 46% 30.10 in 10.0 mi SSW 6.9 mph - N/A   Clear
1:35 AM 69.8 °F - 46.4 °F 43% 30.10 in 10.0 mi SW 8.1 mph - N/A   Clear
1:55 AM 68.0 °F - 46.4 °F 46% 30.10 in 10.0 mi SW 5.8 mph - N/A   Clear
2:15 AM 64.4 °F - 50.0 °F 59% 30.10 in 10.0 mi SW 8.1 mph - N/A   Clear
2:35 AM 62.6 °F - 48.2 °F 59% 30.10 in 10.0 mi SW 5.8 mph - N/A   Clear
2:55 AM 64.4 °F - 48.2 °F 56% 30.10 in 10.0 mi SW 6.9 mph - N/A   Clear
3:15 AM 62.6 °F - 50.0 °F 63% 30.10 in 10.0 mi SW 6.9 mph - N/A   Clear
3:35 AM 62.6 °F - 50.0 °F 63% 30.09 in 10.0 mi WSW 6.9 mph - N/A   Clear
3:55 AM 64.4 °F - 50.0 °F 59% 30.09 in 10.0 mi WSW 9.2 mph - N/A   Clear
4:15 AM 62.6 °F - 50.0 °F 63% 30.09 in 10.0 mi SW 8.1 mph - N/A   Clear
4:35 AM 62.6 °F - 51.8 °F 68% 30.09 in 10.0 mi SW 6.9 mph - N/A   Clear
4:55 AM 62.6 °F - 51.8 °F 68% 30.09 in 10.0 mi SW 6.9 mph - N/A   Clear
5:15 AM 62.6 °F - 51.8 °F 68% 30.09 in 10.0 mi SW 5.8 mph - N/A   Clear
5:35 AM 60.8 °F - 51.8 °F 72% 30.10 in 10.0 mi SW 3.5 mph - N/A   Clear
5:55 AM 60.8 °F - 53.6 °F 77% 30.10 in 10.0 mi SW 4.6 mph - N/A   Clear
6:15 AM 60.8 °F - 53.6 °F 77% 30.10 in 10.0 mi SW 3.5 mph - N/A   Clear
6:35 AM 60.8 °F - 51.8 °F 72% 30.10 in 10.0 mi SSW 4.6 mph - N/A   Clear
6:55 AM 62.6 °F - 53.6 °F 72% 30.10 in 10.0 mi SW 3.5 mph - N/A   Clear
7:15 AM 62.6 °F - 53.6 °F 72% 30.10 in 10.0 mi SSW 4.6 mph - N/A   Clear
7:35 AM 64.4 °F - 55.4 °F 73% 30.11 in 10.0 mi SSW 3.5 mph - N/A   Clear
7:55 AM 66.2 °F - 55.4 °F 68% 30.11 in 10.0 mi Calm Calm - N/A   Clear
8:15 AM 73.4 °F - 59.0 °F 61% 30.11 in 10.0 mi SSW 4.6 mph - N/A   Clear
8:35 AM 77.0 °F - 57.2 °F 50% 30.11 in 10.0 mi South 4.6 mph - N/A   Clear
8:55 AM 77.0 °F - 57.2 °F 50% 30.11 in 10.0 mi South 3.5 mph - N/A   Clear
9:15 AM 78.8 °F - 59.0 °F 51% 30.11 in 10.0 mi Calm Calm - N/A   Clear
9:35 AM 78.8 °F - 57.2 °F 47% 30.10 in 10.0 mi Calm Calm - N/A   Clear
9:55 AM 82.4 °F 82.5 °F 59.0 °F 45% 30.10 in 10.0 mi South 3.5 mph - N/A   Clear
10:15 AM 84.2 °F 83.0 °F 55.4 °F 37% 30.10 in 10.0 mi South 3.5 mph - N/A   Clear
10:35 AM 86.0 °F 84.5 °F 55.4 °F 35% 30.11 in 10.0 mi SSE 6.9 mph - N/A   Clear
10:55 AM 86.0 °F 84.5 °F 55.4 °F 35% 30.11 in 10.0 mi SE 8.1 mph - N/A   Clear
11:15 AM 87.8 °F 85.7 °F 53.6 °F 31% 30.10 in 10.0 mi SSE 11.5 mph - N/A   Clear
11:35 AM 87.8 °F 86.1 °F 55.4 °F 33% 30.10 in 10.0 mi SE 9.2 mph - N/A   Clear
11:55 AM 89.6 °F 87.3 °F 53.6 °F 29% 30.09 in 10.0 mi SE 10.4 mph - N/A   Clear
12:15 PM 89.6 °F - 50.0 °F 26% 30.09 in 10.0 mi SE 12.7 mph - N/A   Clear
12:35 PM 91.4 °F - 51.8 °F 26% 30.08 in 10.0 mi SSE 8.1 mph - N/A   Clear
12:55 PM 91.4 °F - 51.8 °F 26% 30.07 in 10.0 mi South 10.4 mph 17.3 mph N/A   Clear
1:15 PM 91.4 °F 89.1 °F 53.6 °F 28% 30.07 in 10.0 mi South 11.5 mph 19.6 mph N/A   Clear
1:35 PM 91.4 °F 89.1 °F 53.6 °F 28% 30.06 in 10.0 mi South 10.4 mph 17.3 mph N/A   Clear
1:55 PM 95.0 °F 92.7 °F 53.6 °F 25% 30.05 in 10.0 mi SSE 8.1 mph 18.4 mph N/A   Clear
2:15 PM 95.0 °F 92.7 °F 53.6 °F 25% 30.05 in 10.0 mi SSE 6.9 mph - N/A   Clear
2:35 PM 95.0 °F 92.7 °F 53.6 °F 25% 30.05 in 10.0 mi South 9.2 mph - N/A   Clear
2:55 PM 95.0 °F 92.7 °F 53.6 °F 25% 30.05 in 10.0 mi SSW 9.2 mph 18.4 mph N/A   Clear
3:15 PM 95.0 °F 93.0 °F 55.4 °F 26% 30.04 in 10.0 mi SE 12.7 mph 25.3 mph N/A   Clear
3:35 PM 91.4 °F 89.1 °F 53.6 °F 28% 30.04 in 10.0 mi South 10.4 mph - N/A   Clear
3:55 PM 87.8 °F - 51.8 °F 29% 30.04 in 10.0 mi South 8.1 mph - N/A   Clear
4:15 PM 87.8 °F - 50.0 °F 27% 30.03 in 10.0 mi South 10.4 mph - N/A   Clear
4:35 PM 91.4 °F 89.4 °F 55.4 °F 29% 30.03 in 10.0 mi South 8.1 mph - N/A   Clear
4:50 PM 91.4 °F 89.1 °F 53.6 °F 28% 30.02 in 10.0 mi South 6.9 mph - N/A   Clear
5:15 PM 91.4 °F - 51.8 °F 26% 30.02 in 10.0 mi South 6.9 mph - N/A   Clear
5:35 PM 87.8 °F - 50.0 °F 27% 30.02 in 10.0 mi South 9.2 mph - N/A   Clear
5:55 PM 87.8 °F 85.7 °F 53.6 °F 31% 30.02 in 10.0 mi South 5.8 mph - N/A   Clear
6:15 PM 87.8 °F 85.7 °F 53.6 °F 31% 30.02 in 10.0 mi SSE 6.9 mph - N/A   Clear
6:35 PM 86.0 °F 84.5 °F 55.4 °F 35% 30.03 in 10.0 mi SE 6.9 mph - N/A   Clear
6:55 PM 84.2 °F 83.0 °F 55.4 °F 37% 30.03 in 10.0 mi SSE 6.9 mph - N/A   Clear
7:15 PM 80.6 °F 81.1 °F 59.0 °F 48% 30.02 in 10.0 mi SE 6.9 mph - N/A   Clear
7:35 PM 78.8 °F - 59.0 °F 51% 30.03 in 10.0 mi SSE 6.9 mph - N/A   Clear
7:55 PM 77.0 °F - 60.8 °F 57% 30.04 in 10.0 mi SSE 8.1 mph - N/A   Clear
8:15 PM 75.2 °F - 57.2 °F 53% 30.04 in 10.0 mi SE 6.9 mph - N/A   Clear
8:35 PM 73.4 °F - 55.4 °F 53% 30.05 in 10.0 mi SE 5.8 mph - N/A   Scattered Clouds
8:55 PM 75.2 °F - 55.4 °F 50% 30.06 in 10.0 mi SE 6.9 mph - N/A   Mostly Cloudy
9:35 PM 75.2 °F - 51.8 °F 44% 30.06 in 10.0 mi SSE 9.2 mph - N/A   Clear
9:55 PM 75.2 °F - 51.8 °F 44% 30.06 in 10.0 mi SSE 8.1 mph - N/A   Clear
10:15 PM 73.4 °F - 53.6 °F 50% 30.06 in 10.0 mi SSE 8.1 mph - N/A   Clear
10:35 PM 73.4 °F - 55.4 °F 53% 30.05 in 10.0 mi SSE 8.1 mph - N/A   Clear
10:55 PM 73.4 °F - 55.4 °F 53% 30.05 in 10.0 mi SSE 8.1 mph - N/A   Clear
11:15 PM 69.8 °F - 53.6 °F 56% 30.06 in 10.0 mi South 8.1 mph - N/A   Clear
11:35 PM 68.0 °F - 53.6 °F 60% 30.06 in 10.0 mi South 6.9 mph - N/A   Clear
11:55 PM 66.2 °F - 53.6 °F 64% 30.06 in 10.0 mi South 6.9 mph - N/A   Clear